Location: Sabalos
(43.2860°N, 0.1414°E)
Time: 00:24:59
(UTC+00:00)

EO 1 Del DPAF - Pass Details

Date: 05 July 2020
Orbit: 512 x 518 km, 98.0° (Epoch: 03 August)

Event Time Altitude Azimuth Distance (km) Brightness Sun altitude
Rises 22:39:07 0° 16° (NNE) 2,640 7.6 -21.2°
Reaches altitude 10° 22:41:15 10° 20° (NNE) 1,747 6.5 -21.3°
Enters shadow 22:44:43 58° 80° (E) 606 3.4 -21.6°
